Regional Weather Roundup
Issued by NWS

Home | Current Version | Previous Version | Graphics & Text | Print | Product List | Glossary Off
Versions: 1 2 3 4 5 6 7 8 9 10 11 12 13 14 15 16 17 18 19 20 21 22 23 24 25 26 27 28 29 30 31 32 33 34 35 36 37 38 39 40 41 42 43 44 45 46 47 48 49 50

141
ASUS43 KMKX 121800
RWRWI

WISCONSIN REGIONAL WEATHER ROUNDUP
NATIONAL WEATHER SERVICE MILWAUKEE/SULLIVAN WI
1200 PM CST FRI FEB 12 2016

NOTE: "FAIR" INDICATES FEW OR NO CLOUDS BELOW 12,000 FEET WITH NO
SIGNIFICANT WEATHER AND/OR OBSTRUCTIONS TO VISIBILITY.

WIZ001-002-006>008-014>016-023>028-121900-
NORTHWEST WISCONSIN

CITY           SKY/WX    TMP DP  RH WIND       PRES   REMARKS
SUPERIOR ARPT  SUNNY      2 -13  48 NW17G25   30.44R WCI -18
ASHLAND        CLOUDY     3  -8  60 NW15G26   30.35R HAZE    WCI -16
6HR MIN TEMP:   2; 6HR MAX TEMP:   6; 6HR PCP: TRACE;

HAYWARD        SUNNY      3 -13  47 N15G26    30.32R WCI -16
6HR MIN TEMP:   1; 6HR MAX TEMP:   4; 6HR PCP: TRACE;

SIREN          SUNNY      5 -13  43 NW15G25   30.39R WCI -13
CUMBERLAND     SUNNY      5  -9  51 NW16      30.31R WCI -14
RICE LAKE      SUNNY      7 -10  47 NW13G21   30.34R WCI -10
CHETEK         MOSUNNY    7  -7  52 MISG      30.33R
LADYSMITH      SUNNY      5  -7  55 NW20G28   30.28R WCI -15
EAU CLAIRE     NOT AVBL
MENOMONIE      SUNNY     12  -6  45 W20G29    30.34R WCI  -7
NEW RICHMOND   SUNNY      7  -8  49 N21G26    30.38R WCI -13
OSCEOLA        SUNNY      7  -9  47 NW17G25   30.44R WCI -11
$$

WIZ003>005-009-010-017-018-121900-
NORTH CENTRAL WISCONSIN

CITY           SKY/WX    TMP DP  RH WIND       PRES   REMARKS
MANITOWISH WTR CLOUDY     2  -8  61 NW22G29   30.16R HAZE    WCI -20
ARBOR VITAE    CLOUDY     4  -6  61 NW22G30   30.14R HAZE    WCI -17
WOODRUFF       CLOUDY     4  -6  61 NW22G30   30.14R HAZE    WCI -17
RHINELANDER    LGT SNOW   4  -7  60 NW17G30   30.12R WCI -16
6HR MIN TEMP:   4; 6HR MAX TEMP:   7; 6HR PCP: TRACE;

EAGLE RIVER    LGT SNOW   4  -6  64 NW18G30   30.09R VSB 3/4 WCI -16
LAND O LAKES   CLOUDY     5  -9  52 NW23G30   30.10R HAZE    WCI -16
PHILLIPS       CLOUDY     3  -8  61 NW12G21   30.20R HAZE    WCI -14
TOMAHAWK       PTSUNNY    6  -8  53 NW15G24   30.16R WCI -12
MEDFORD        PTSUNNY    6  -7  55 NW18      30.17R HAZE    WCI -13
MERRILL        CLOUDY     8  -7  50 NW13G22   30.17R WCI  -8
$$

WIZ029-030-035-036-043>047-121900-
CENTRAL WISCONSIN

CITY           SKY/WX    TMP DP  RH WIND       PRES   REMARKS
WAUSAU         PTSUNNY   10  -6  48 NW14G28   30.16R WCI  -6
6HR MIN TEMP:   8; 6HR MAX TEMP:  12; 6HR PCP: TRACE;

MOSINEE        MOSUNNY    9  -4  56 NW21G31   30.18R WCI -11
MARSHFIELD     PTSUNNY    9  -6  50 NW23G30   30.19R WCI -11
6HR MIN TEMP:   8; 6HR MAX TEMP:  12; 6HR PCP: TRACE;

STEVENS POINT  PTSUNNY    9  -8  46 NW14G28   30.18R WCI  -7
WAUPACA        SUNNY     16  -5  39 NW15G26   30.16S WCI   1
WAUTOMA        NOT AVBL
WISC RAPIDS    PTSUNNY   11  -6  46 NW23G36   30.21R WCI  -9
6HR MIN TEMP:  11; 6HR MAX TEMP:  12; 6HR PCP: TRACE;

CAMP DOUGLAS   NOT AVBL
$$

WIZ011>013-019>022-031-037>040-048>050-121900-
NORTHEAST WISCONSIN

CITY           SKY/WX    TMP DP  RH WIND       PRES   REMARKS
ANTIGO         CLOUDY     7  -5  58 NW21G26   30.09R WCI -13
SHAWANO        PTSUNNY   15  -4  43 NW15G21   30.14R WCI   0
OCONTO         CLOUDY    15  -2  47 NW14G21   30.11R WCI   0
STURGEON BAY   PTSUNNY   16  -2  45 NW17G25   30.09S WCI   0
6HR MIN TEMP:  10; 6HR MAX TEMP:  16;

GREEN BAY      MOSUNNY   14   0  53 NW17G28   30.12R WCI  -3
6HR MIN TEMP:  12; 6HR MAX TEMP:  15;

MANITOWOC      NOT AVBL
APPLETON       MOSUNNY   14  -6  41 MISG      30.11R
CLINTONVILLE   MOSUNNY   14  -4  44 NW16G25   30.14R WCI  -2
OSHKOSH        SUNNY     15  -1  49 NW21G28   30.13S WCI  -2
6HR MIN TEMP:  13; 6HR MAX TEMP:  15; 6HR PCP: TRACE;

$$

WIZ032>034-041-042-053>061-121900-
SOUTHWEST WISCONSIN

CITY           SKY/WX    TMP DP  RH WIND       PRES   REMARKS
LA CROSSE      SUNNY     15   1  53 NW21      30.31R WCI  -2
6HR MIN TEMP:  13; 6HR MAX TEMP:  15; 6HR PCP: TRACE;

SPARTA         SUNNY     16   1  53 NW21      30.27R WCI  -2
VIROQUA        MOSUNNY   14   1  56 NW20      30.22S WCI  -4
BOSCOBEL       MOSUNNY   19   3  49 NW17      30.29R WCI   4
6HR MIN TEMP:  13; 6HR MAX TEMP:  19; 6HR PCP: TRACE;

PRAIRIE DU CHI SUNNY     17   3  52 W16G24    30.31S WCI   2
PLATTEVILLE    PTSUNNY   18   8  66 NW22      30.24S WCI   0
$$

WIZ056-057-062-063-064-067-068-121900-
SOUTH CENTRAL WISCONSIN

CITY           SKY/WX    TMP DP  RH WIND       PRES   REMARKS
REEDSBURG      SUNNY     15  -2  46 NW20G30   30.21R WCI  -2
BARABOO/DELLS  SUNNY     16  -2  44 NW14G23   30.19S WCI   1
LONE ROCK      NOT AVBL
MINERAL POINT  MOSUNNY   19   5  53 NW13G24   30.21S WCI   7
MADISON        MOSUNNY   16   1  51 NW12G22   30.19R WCI   3
6HR MIN TEMP:  13; 6HR MAX TEMP:  17; 6HR PCP: TRACE;

MIDDLETON      MOSUNNY   18   4  53 NW16G23   30.20S WCI   3
WATERTOWN      PTSUNNY   19   4  53 NW20      30.16R WCI   3
MONROE         PTSUNNY   19   7  58 NW20G26   30.19R WCI   4
JANESVILLE     NOT AVBL
$$

WIZ051-052-058>065-066-070>072-121900-
SOUTHEAST WISCONSIN

CITY           SKY/WX    TMP DP  RH WIND       PRES   REMARKS
MILWAUKEE      PTSUNNY   19   2  47 NW16G29   30.14S WCI   4
6HR MIN TEMP:  16; 6HR MAX TEMP:  19;

WAUKESHA       PTSUNNY   16   7  67 W20G26    30.14S WCI  -1
MILWAUKEE/TIMM PTSUNNY   18   1  49 NW21G26   30.14S WCI   1
RACINE         MOSUNNY   20   3  48 NW15G26   30.15S WCI   6
6HR MIN TEMP:  17; 6HR MAX TEMP:  20;

BURLINGTON     PTSUNNY   17   5  58 NW18      30.15S WCI   1
KENOSHA        PTSUNNY   19   6  57 NW21G28   30.14S WCI   3
6HR MIN TEMP:  17; 6HR MAX TEMP:  19;

FOND DU LAC    MOSUNNY   16   1  51 NW21G29   30.13S WCI  -1
6HR MIN TEMP:  14; 6HR MAX TEMP:  16; 6HR PCP: TRACE;

SHEBOYGAN      MOSUNNY   16   2  54 W18       30.11S WCI   0
6HR MIN TEMP:  13; 6HR MAX TEMP:  16;

WEST BEND      MOSUNNY   18   0  45 NW16G30   30.12S WCI   3
JUNEAU         SUNNY     16   0  51 NW15G23   30.15S WCI   1
$$

LSZ147-162-121900-
LAKE SUPERIOR

STATION/POSITION TIME  TEMP    WIND        PRES    WAVE
                       AIR SEA DIR/SP/G            HT/PER
                 (UTC) (F)     (DEG/KT/KT) (MB)    (FT/S)
DEVILS ISLAND    1700    0     330/ 27/ 30 1029.6R
PORT WING        1740    2     310/ 14/ 22 1029.1R
SAXON HARBOR     1720    3                 1026.8R
$$

LMZ867-665-643>646-121900-
LAKE MICHIGAN

STATION/POSITION TIME  TEMP    WIND        PRES    WAVE
                       AIR SEA DIR/SP/G            HT/PER
                 (UTC) (F)     (DEG/KT/KT) (MB)    (FT/S)
CHAMBERS ISLAND  1700   17     290/  8/ 19 1018.3R
ALGOMA LAKESHORE 1611          320/ 12/ 20   N/A
KEWAUNEE LAKESHO 1700   16     300/ 14/ 20 1017.9R
SHEBOYGAN LAKESH 1700   15     290/ 18/ 23 1021.1R
PORT WASHINGTON  1740   18     310/ 12/ 19 1021.3R
MILWAUKEE LAKESH 1710   18     310/ 11/ 16   N/A
KENOSHA   LAKESH 1700   18     290/ 15/ 24 1020.7R
$$

TC  - TEMPERATURE IN CELSIUS
VSB - VISIBILITY IN STATUTE MILES
WCI - WIND CHILL INDEX
HX  - HEAT INDEX





USA.gov is the U.S. government's official web portal to all federal, state and local government web resources and services.